Wind_Speed
15 15 15 14 13 13 12 13 13 12 11 11 10 10 10 10 11 10 9 9 8 8 8 9 9 9 10 11 11 11 11 12 12 12 12 12 12 12 13 14 15 16 16 16 16 17 18 19 20 22 23 23 23 24 24 24 24 25 26 27 28 28 29 30 31 32 33 34 36 37 39 40 41 42 43 44 44 42 38 35 34 34 34 34 33
17 17 16 15 14 13 13 13 12 11 11 11 11 11 11 11 11 9 8 7 8 8 9 9 9 10 10 11 11 11 12 11 11 11 11 11 11 11 13 15 15 15 15 15 16 16 18 19 21 22 22 22 22 23 23 23 24 25 25 26 27 29 30 32 33 34 35 35 37 38 39 40 41 42 44 45 45 43 39 35 32 30 30 31 30
18 18 17 16 15 14 13 13 13 13 12 13 13 12 12 12 10 8 7 7 8 9 9 9 10 10 10 11 11 11 11 11 11 10 10 10 10 12 14 14 14 14 14 15 15 16 18 19 20 21 21 22 22 22 22 23 24 24 24 25 27 29 31 32 34 35 36 37 38 39 40 41 42 43 44 45 45 44 40 36 32 28 26 27 28
19 19 19 17 15 14 14 14 14 14 14 14 14 13 13 11 9 7 7 8 9 9 10 10 10 10 11 11 11 11 10 10 10 9 9 10 11 13 13 13 13 13 14 14 15 16 18 19 20 20 21 21 21 21 22 22 23 23 24 25 27 29 30 32 33 35 36 37 38 39 40 41 42 43 44 46 47 45 41 37 33 29 25 26 27
20 20 19 18 16 15 15 15 15 16 15 15 14 14 13 10 8 8 8 9 11 11 11 11 11 11 11 11 11 10 9 9 9 9 9 11 12 12 12 12 12 12 13 14 15 16 17 18 19 20 20 20 20 21 21 21 22 23 24 26 27 29 30 31 32 34 35 36 37 39 40 42 43 44 45 48 49 48 45 41 37 33 29 28 30
20 21 20 19 17 16 16 17 17 17 16 15 15 14 12 10 9 10 10 12 13 13 12 11 11 11 11 11 10 9 8 8 9 9 10 11 11 11 11 11 11 12 12 13 14 15 17 18 18 18 19 19 20 20 20 21 21 23 24 26 27 28 29 30 32 33 34 36 37 39 41 43 44 46 48 50 51 52 50 46 42 38 35 33 33
21 21 21 20 18 18 18 18 18 18 17 16 15 14 13 12 12 12 13 14 15 14 13 12 12 12 11 10 9 8 8 8 9 9 10 10 10 10 10 10 11 11 12 13 14 15 16 17 17 17 17 18 18 19 20 21 22 23 24 25 27 28 29 30 32 33 35 37 38 40 43 45 46 47 49 51 52 54 54 53 48 44 41 39 38
23 22 22 21 20 19 20 20 19 19 18 17 16 16 15 15 15 15 16 17 17 16 14 13 13 12 11 10 9 9 9 9 9 10 10 9 9 9 9 10 10 11 11 12 14 15 16 17 17 16 17 17 18 18 19 20 21 22 24 25 26 27 29 30 32 34 36 38 40 42 44 46 48 49 50 52 54 55 57 56 53 49 46 44 41
23 23 22 22 21 21 21 21 21 21 20 19 19 19 18 18 18 18 18 19 18 17 15 14 13 12 11 10 9 9 9 9 9 9 9 9 9 8 8 9 10 10 11 12 13 15 15 16 16 16 17 17 18 19 19 20 21 22 23 25 26 27 29 31 33 35 37 40 41 43 45 48 50 51 52 54 55 57 58 58 56 53 51 47 44
23 23 24 23 23 22 23 23 23 22 22 21 21 21 20 20 20 20 21 21 19 17 15 14 13 12 11 10 10 10 10 10 10 9 8 8 8 8 8 8 9 10 11 12 13 14 15 15 15 16 17 17 18 19 20 21 22 23 25 26 27 29 30 31 34 36 38 40 43 45 47 49 51 53 54 55 56 58 59 60 59 57 55 52 49
24 25 25 24 24 24 23 23 23 23 23 23 22 22 22 22 22 22 23 22 19 17 15 14 14 13 12 11 11 11 10 10 9 8 8 8 7 7 7 8 8 9 10 11 12 13 14 14 14 15 16 17 17 18 19 21 22 23 25 26 28 30 31 33 35 36 38 40 43 45 48 50 52 54 55 56 57 58 60 62 61 59 58 58 56
26 26 26 25 25 24 24 24 24 24 24 23 23 23 23 23 23 23 24 23 20 17 16 14 14 13 13 13 12 11 11 10 9 8 8 7 7 7 6 7 8 8 9 10 11 12 12 13 13 14 15 15 16 18 19 20 21 23 24 26 27 29 31 33 35 37 39 40 43 45 48 50 52 54 55 57 58 59 60 61 60 59 59 59 59
26 27 27 26 25 25 25 25 25 25 24 24 24 24 24 24 24 24 25 23 20 18 16 14 14 14 15 14 13 12 11 10 9 8 7 7 7 6 6 6 7 8 8 9 10 10 11 11 12 12 13 14 15 17 18 19 20 22 23 24 26 28 30 32 34 36 38 40 42 45 47 49 51 53 55 56 57 58 59 59 59 58 58 58 59
27 27 27 26 26 25 25 25 25 25 25 26 26 25 26 26 25 25 25 24 23 22 19 16 15 16 16 15 14 13 11 10 8 8 7 7 6 5 5 6 6 7 8 8 9 9 9 10 11 11 12 13 14 15 16 18 19 20 22 24 26 27 29 30 32 35 37 39 42 44 45 47 50 51 53 54 55 57 57 58 59 58 57 57 58
27 27 27 27 26 26 26 26 26 26 26 27 27 27 28 27 26 25 24 23 25 25 20 16 18 18 17 15 14 13 11 10 9 8 7 6 5 5 5 5 6 6 7 7 8 8 8 9 9 9 10 11 13 14 15 16 18 19 22 24 26 27 29 31 32 34 37 39 41 42 44 45 47 49 51 53 53 54 55 56 57 57 57 57 58
28 28 28 27 26 26 26 26 26 26 26 28 29 30 28 24 23 24 23 21 22 21 17 17 19 20 18 16 14 13 11 10 9 8 7 5 4 4 5 5 5 6 6 6 6 6 7 7 7 8 9 10 12 13 14 16 17 19 21 23 25 27 29 31 33 34 36 38 39 40 41 42 44 46 48 51 53 54 55 55 56 58 59 59 60
29 29 28 28 27 26 26 26 26 26 26 28 30 31 27 21 19 21 21 19 20 20 18 19 21 20 18 16 14 13 11 11 10 8 6 5 4 4 5 5 5 5 5 5 5 5 6 6 6 7 8 10 12 13 14 16 17 19 21 22 23 25 27 29 30 32 33 35 36 38 39 39 41 42 45 48 51 54 56 57 58 59 61 62 62
30 29 29 29 28 28 27 26 26 26 26 27 30 29 24 20 19 19 18 19 21 22 21 21 21 20 17 15 14 13 12 11 10 8 6 5 4 4 5 5 4 4 4 4 4 4 5 5 5 6 8 10 11 13 14 16 17 19 20 22 24 25 26 27 29 30 31 32 33 35 36 38 39 40 43 45 48 52 55 57 58 59 60 62 63
28 29 29 29 29 29 27 26 26 26 25 25 25 23 20 19 18 18 19 20 21 22 22 22 21 20 17 16 14 13 13 12 10 8 6 5 5 5 5 5 4 4 4 4 3 3 4 4 5 6 8 10 11 12 14 15 17 19 21 23 24 26 28 29 30 31 32 33 34 34 35 37 38 39 41 43 46 49 52 55 57 58 59 60 61
27 27 27 27 28 29 28 26 26 25 22 21 20 20 19 18 18 19 20 20 21 22 23 23 22 19 17 16 15 14 13 12 10 8 7 6 6 6 5 5 4 4 4 3 2 3 3 3 4 5 7 9 11 12 14 16 17 19 21 23 24 26 28 30 31 33 34 34 35 35 35 36 37 38 40 42 44 47 49 52 55 57 58 59 59
23 22 22 23 25 27 28 28 28 24 20 19 20 19 19 19 20 21 21 21 21 22 23 23 21 18 17 16 16 15 13 11 10 9 8 7 6 6 6 5 4 5 4 3 3 3 3 3 4 6 7 9 11 13 15 16 18 20 22 23 25 27 28 30 31 32 33 34 35 35 36 36 37 38 39 41 43 45 47 49 52 54 56 57 57
19 19 18 19 21 23 25 27 27 23 20 20 20 19 20 20 22 23 22 22 22 23 24 22 19 18 18 17 17 15 13 11 10 9 8 8 7 7 6 6 5 6 5 4 3 3 2 3 4 6 8 9 11 13 15 17 18 20 22 24 25 27 28 30 31 32 33 34 35 36 36 37 37 38 39 40 41 43 45 46 48 50 51 53 55
19 20 21 21 21 22 22 22 22 21 20 20 20 20 20 21 22 23 23 22 22 24 24 22 19 19 19 18 17 16 13 12 10 9 9 9 8 8 7 7 7 7 6 5 5 4 3 3 4 6 8 9 11 13 15 17 18 20 22 23 25 26 27 29 30 31 33 34 35 36 37 38 38 39 40 40 41 41 42 43 44 46 48 50 50
18 20 22 22 23 24 23 22 21 20 20 21 20 20 21 22 23 22 21 21 22 24 23 21 20 21 20 19 17 15 14 12 11 10 10 10 9 9 8 8 8 7 7 6 5 4 4 4 5 6 8 9 11 13 15 16 18 19 21 23 24 25 27 28 30 31 32 33 35 36 37 38 39 40 40 41 40 39 39 40 40 41 43 46 47
20 21 22 20 20 23 24 23 21 21 21 22 21 20 21 22 22 22 21 21 22 23 23 22 22 22 21 19 18 16 14 13 11 11 11 11 10 10 9 9 9 8 7 6 6 5 5 5 6 7 8 10 12 14 15 16 18 19 21 22 24 25 27 29 30 31 32 34 35 36 37 37 38 39 39 39 39 39 39 39 39 40 41 42 44
21 22 21 19 19 22 23 22 21 22 23 22 21 21 22 23 22 21 20 21 22 23 24 23 24 23 21 20 18 16 15 13 12 12 12 12 11 11 11 10 10 9 7 7 6 6 6 7 7 8 9 10 12 14 16 17 18 20 21 23 24 26 28 29 30 32 33 34 35 36 36 37 37 37 37 37 38 39 40 40 40 41 41 42 43
19 21 21 19 19 21 22 22 22 23 24 23 22 22 22 22 22 21 20 21 23 24 24 24 24 23 21 20 19 17 15 14 12 13 13 13 12 12 12 11 11 9 8 7 7 7 7 8 8 8 9 11 13 14 16 18 19 20 22 23 25 27 28 30 31 33 33 34 34 35 36 36 36 36 37 37 37 38 39 40 41 41 42 42 43
20 20 20 20 20 19 20 21 22 22 22 22 23 22 22 22 21 20 20 21 23 23 24 24 24 23 22 21 19 17 15 14 14 14 14 13 13 13 13 12 11 10 9 8 8 8 9 9 9 9 10 11 13 15 17 18 20 21 22 23 25 27 28 30 32 33 34 34 34 35 35 35 35 35 36 36 37 37 37 39 40 40 41 42 43
25 24 24 22 20 18 19 22 24 24 23 24 25 24 23 23 22 21 22 23 25 24 25 25 25 24 24 22 20 18 17 16 16 16 15 14 14 14 14 13 12 11 10 9 9 9 10 10 10 10 11 12 14 16 18 19 21 23 24 24 26 27 29 30 32 33 34 34 34 34 35 35 35 35 34 35 35 36 36 37 38 39 39 40 41
26 28 27 23 20 21 22 23 25 26 26 27 28 27 26 25 25 24 24 26 27 27 29 30 29 27 26 24 22 21 20 19 18 17 15 15 16 15 15 14 13 12 11 10 10 10 11 11 11 10 11 13 15 17 18 19 21 23 24 25 27 28 29 31 32 32 33 33 33 34 35 35 35 35 35 34 34 34 34 35 36 37 38 39 40
26 30 29 24 22 24 24 23 23 25 26 27 30 30 28 26 26 26 26 28 29 31 33 34 33 31 28 27 26 24 21 19 18 17 16 17 17 17 16 15 14 13 12 11 11 11 12 12 12 11 12 14 16 17 18 19 21 22 23 25 27 28 30 31 31 32 32 32 32 33 34 35 35 35 35 35 34 33 33 33 33 34 36 37 38
25 30 29 25 23 24 23 22 22 22 23 27 32 32 29 28 27 27 28 29 31 33 35 35 33 31 29 28 27 24 22 20 19 18 18 17 18 18 18 17 15 14 13 12 12 12 12 13 13 13 13 15 16 18 18 19 21 22 23 24 26 28 29 30 30 31 31 31 32 33 34 34 34 34 34 34 33 32 32 32 32 33 34 35 36
27 30 28 23 21 21 21 22 22 21 22 27 32 32 30 29 29 29 29 31 33 35 36 35 32 30 29 28 25 23 22 22 21 20 19 19 19 20 19 18 17 15 14 13 12 13 13 14 14 14 15 16 17 18 19 20 22 23 24 25 26 27 28 29 29 30 31 31 32 33 33 33 34 34 34 34 34 33 32 31 31 31 32 33 35
29 32 28 21 19 20 22 23 24 22 20 23 29 32 31 30 30 30 31 32 34 35 35 33 31 29 29 27 25 23 22 21 20 20 20 20 21 21 20 19 17 16 14 14 13 14 14 15 15 15 16 17 18 19 20 21 22 23 24 25 26 27 27 28 29 30 30 31 32 33 33 33 33 34 35 35 34 33 31 30 30 30 31 32 33
31 33 31 26 23 23 24 24 24 21 17 17 21 26 30 31 32 32 32 32 33 34 33 31 30 29 28 27 25 24 22 21 20 20 21 22 22 22 21 20 18 17 16 15 14 15 15 15 16 16 16 17 19 20 21 22 23 24 25 25 26 26 27 28 28 29 30 31 32 32 32 32 33 34 35 35 35 33 31 30 29 29 30 31 32
29 32 33 30 28 27 26 24 23 22 19 17 19 22 27 32 34 34 33 32 33 34 33 31 30 30 29 27 26 24 23 22 22 22 22 23 23 23 22 20 19 18 17 16 16 16 16 16 17 17 17 18 19 20 21 22 23 24 25 26 26 26 26 27 28 29 30 31 32 32 32 33 33 34 34 34 34 33 32 30 28 27 28 29 30
25 29 32 32 31 30 29 28 27 24 22 20 21 21 24 30 34 35 34 33 33 34 33 32 32 31 29 27 26 25 24 24 23 23 23 24 24 23 22 21 20 19 18 17 17 17 16 17 17 17 17 18 19 21 22 22 23 24 25 26 26 26 26 27 28 29 30 30 30 31 31 32 33 33 33 32 32 32 31 30 28 27 27 28 29
23 27 31 32 32 31 29 28 27 26 24 23 21 19 20 25 31 35 35 34 34 35 35 35 34 32 29 28 26 26 26 25 24 24 24 24 24 24 23 23 22 21 19 19 19 18 17 17 18 17 18 18 19 21 22 23 23 24 25 25 25 25 26 27 28 29 29 29 29 29 30 31 31 31 31 31 30 31 31 30 29 28 27 28 29
24 27 31 32 32 30 28 27 27 26 24 22 19 16 17 20 25 31 35 36 36 37 37 37 35 33 31 30 29 28 28 27 25 24 25 25 25 25 25 24 23 22 21 21 20 19 18 18 18 18 18 19 20 21 22 23 24 24 25 25 25 25 25 26 27 28 29 29 28 27 28 29 29 29 29 28 28 28 29 29 29 29 29 29 29
25 28 30 31 31 29 28 26 26 25 24 20 18 17 17 18 21 27 32 35 37 38 38 37 35 34 34 33 32 31 30 28 27 26 27 27 27 27 26 25 24 23 22 22 21 20 19 18 18 18 19 19 20 22 23 23 24 24 25 25 25 25 25 26 27 27 28 28 27 26 26 27 27 27 27 26 26 26 27 27 28 28 28 29 29
26 29 31 32 31 30 29 27 25 25 24 22 21 20 19 19 22 25 30 34 37 37 38 37 35 34 35 35 34 32 31 29 28 28 28 27 28 28 27 26 25 24 23 22 22 21 20 19 18 19 19 20 21 22 23 23 24 24 25 25 25 25 25 26 26 27 28 28 27 26 26 26 26 25 25 25 25 24 25 25 26 27 27 28 28
26 28 32 34 33 32 30 28 26 26 25 24 22 21 20 20 22 26 30 33 36 38 39 38 36 36 37 37 35 33 32 30 28 27 27 27 28 28 27 26 25 25 24 23 22 21 20 19 19 19 20 21 22 23 23 24 24 25 25 25 25 25 26 25 26 27 27 27 27 26 26 25 25 25 24 24 24 24 24 25 26 26 26 26 27
24 26 29 32 32 31 29 28 27 27 25 23 21 20 19 20 23 27 31 34 36 37 38 37 36 37 38 37 35 33 30 28 27 26 26 27 27 27 27 26 26 25 24 24 23 21 20 20 19 19 20 21 22 23 24 24 24 25 25 25 26 25 25 25 26 27 27 27 27 27 26 26 26 25 24 24 23 23 24 25 26 26 26 26 26
21 23 26 28 29 29 28 28 29 28 25 23 22 21 20 21 23 27 31 34 36 36 36 36 36 37 38 37 35 32 29 28 27 26 26 26 27 27 27 26 26 26 25 24 23 22 21 20 20 20 21 22 23 23 24 24 25 25 25 26 26 26 26 26 26 27 27 27 28 28 28 27 26 25 24 24 23 22 22 24 25 26 26 26 26
19 21 24 26 28 28 28 27 26 25 24 22 21 21 22 23 24 27 31 35 37 37 36 36 37 39 39 38 35 31 29 28 27 26 26 26 26 26 27 27 27 27 26 25 24 22 21 21 21 21 22 22 23 24 24 24 25 25 25 26 27 26 26 26 27 27 28 28 28 29 29 28 26 24 24 23 22 21 21 22 24 25 25 26 26
22 23 23 24 26 27 27 26 25 24 23 23 23 24 25 25 25 27 31 36 38 39 38 38 38 39 40 38 34 31 30 28 27 25 25 26 26 26 27 27 27 27 27 26 24 23 22 22 22 22 23 23 24 24 25 25 25 25 26 26 27 27 27 27 28 28 28 29 29 29 29 29 27 26 25 24 23 22 22 22 23 24 25 26 27
25 26 25 24 24 24 24 24 23 23 23 24 25 25 24 23 23 26 31 36 39 40 39 38 38 38 38 36 33 31 30 29 27 26 26 26 26 26 27 27 27 28 27 26 25 24 23 22 22 23 23 24 25 25 25 26 26 26 27 27 28 28 28 28 29 29 28 29 29 29 30 30 29 28 28 27 26 24 23 23 23 24 26 27 27
27 27 25 23 24 24 23 24 24 24 24 23 23 22 21 20 21 25 31 36 40 41 40 39 38 37 36 34 32 32 32 30 28 27 27 26 26 26 26 26 27 27 27 26 25 24 23 23 23 24 24 25 25 26 26 26 27 27 28 28 29 29 29 29 29 29 28 28 29 29 30 30 31 30 30 30 30 28 26 25 25 26 27 27 28
26 25 23 22 23 25 25 25 25 24 22 22 20 19 19 19 20 24 30 36 40 42 42 41 39 37 35 33 32 32 32 30 28 27 26 26 25 25 25 26 27 27 26 26 25 24 24 24 24 25 25 26 26 27 27 28 28 29 29 29 29 29 29 29 29 28 28 28 29 29 29 30 32 32 33 33 32 31 29 27 27 28 29 30 30
23 24 23 22 23 24 25 25 24 23 22 21 20 19 18 18 19 23 28 34 38 42 43 42 39 36 34 33 33 32 31 30 28 27 26 26 26 26 26 27 27 26 26 25 25 25 25 25 25 26 26 27 27 28 29 30 30 30 29 29 30 29 29 29 28 28 28 29 29 30 30 31 32 34 35 35 34 33 31 30 31 32 33 33 33
22 24 24 23 23 24 25 24 23 23 21 20 19 18 19 19 20 21 25 30 35 38 40 40 37 35 34 34 33 32 31 29 28 27 27 26 26 26 26 27 26 26 26 26 25 26 26 26 26 27 28 28 29 29 30 31 31 30 30 30 30 29 29 29 29 29 29 29 30 31 31 32 33 34 35 36 36 34 33 33 34 35 36 36 36
Wind_Direction
210 206 207 205 202 199 192 186 189 197 205 211 214 217 227 235 239 242 245 251 258 265 272 277 285 292 295 298 302 304 305 308 315 323 326 323 319 319 325 331 333 334 333 332 331 332 333 335 337 340 341 342 342 341 342 343 345 346 346 346 345 345 347 348 350 352 352 351 349 348 346 346 347 347 347 347 345 342 338 333 326 321 316 312 308
207 205 204 205 203 198 196 196 201 209 214 215 217 223 231 235 235 237 243 252 261 267 272 278 284 288 291 295 297 298 302 309 318 321 319 315 316 323 329 332 333 333 331 330 330 332 334 338 341 342 342 342 342 343 344 346 348 348 347 346 347 348 350 351 352 352 353 353 351 349 349 349 349 349 349 349 347 344 341 337 331 325 319 312 308
206 204 202 203 202 199 202 206 210 214 215 217 220 225 230 231 229 232 244 257 266 271 276 280 282 284 287 289 291 295 302 312 316 314 311 311 320 328 330 331 331 330 328 328 330 333 338 341 343 342 342 343 343 344 347 349 349 348 347 348 351 353 354 354 353 353 353 354 353 351 350 351 352 352 351 351 350 348 345 341 337 334 327 318 312
206 203 201 202 202 204 208 210 212 214 215 218 221 225 227 225 226 236 252 267 273 276 278 278 277 278 281 284 287 295 304 310 309 306 306 314 324 328 328 329 328 326 326 328 332 338 341 343 343 343 343 343 344 347 349 349 348 348 350 353 355 357 357 357 355 354 354 354 354 352 351 353 355 354 352 353 353 352 351 348 345 344 339 330 323
207 205 204 206 208 210 213 213 214 215 217 219 220 223 223 223 232 247 262 274 278 279 276 273 272 273 275 279 286 295 302 303 301 300 307 317 323 323 324 325 324 324 327 332 337 342 343 343 343 344 343 343 345 349 349 348 348 350 353 356 358 359 360 359 357 356 355 355 355 354 353 355 357 356 355 355 355 355 356 356 353 351 348 342 336
209 208 208 211 214 217 217 216 217 217 217 218 217 220 223 229 242 254 265 274 277 277 273 270 269 269 272 278 286 293 295 293 292 298 309 315 317 318 321 322 321 325 331 337 341 343 342 343 344 343 342 344 347 348 347 349 351 353 357 359 0 1 1 1 360 358 357 357 357 356 356 357 358 359 358 357 358 357 358 359 359 357 354 349 343
212 212 214 217 220 223 221 218 218 218 216 217 219 225 232 240 249 257 265 272 275 275 271 268 266 266 270 277 282 286 284 281 287 299 307 308 310 315 318 319 321 329 337 340 342 342 342 342 342 341 343 346 348 346 347 350 353 356 359 2 2 2 3 3 1 360 359 360 0 359 359 359 360 1 360 359 360 360 360 360 360 359 358 356 349
214 216 218 221 225 226 223 220 218 217 217 220 226 233 240 246 252 257 263 268 271 271 268 264 262 263 268 273 274 273 270 274 287 297 300 301 306 312 315 319 326 335 341 341 341 341 341 340 339 341 345 346 347 347 350 352 355 358 1 3 3 3 4 3 3 2 1 1 2 2 1 0 1 2 1 0 0 2 2 1 360 359 360 1 358
218 219 221 224 227 227 225 222 220 219 220 224 231 238 244 250 254 256 259 263 265 265 263 260 259 261 264 264 263 260 261 273 286 289 290 295 302 308 316 323 330 338 341 340 341 341 339 338 340 343 346 346 347 350 352 354 357 359 1 3 4 5 5 4 4 4 3 2 3 3 2 2 2 2 2 2 1 2 3 2 2 1 0 2 5
222 223 224 226 228 228 226 226 226 226 227 231 237 242 247 251 254 255 257 260 261 259 257 254 254 257 258 255 251 251 260 273 279 281 284 290 298 307 319 327 334 340 341 340 341 340 337 339 343 346 346 347 349 352 354 356 359 0 1 2 3 4 5 5 4 5 5 3 3 3 3 3 3 2 2 3 2 3 3 3 3 2 1 2 6
224 226 227 228 228 228 228 229 230 232 234 238 242 245 249 252 253 254 256 258 257 253 249 248 250 252 251 247 244 248 262 271 270 272 279 286 296 309 321 331 337 341 340 341 341 337 336 341 346 347 347 348 352 355 358 360 1 3 3 3 3 3 3 4 5 5 6 5 4 4 4 4 3 3 3 3 3 3 4 4 3 2 1 2 2
226 227 227 228 228 227 228 230 232 235 238 242 245 247 250 253 254 256 257 258 254 247 242 243 246 248 245 240 242 251 261 263 261 266 275 284 296 310 324 333 337 338 338 340 339 334 337 344 346 345 347 350 354 358 1 2 3 4 5 5 6 5 4 4 5 5 5 6 6 5 4 4 3 3 3 3 2 3 4 4 4 3 3 2 1
227 226 226 227 228 228 230 232 234 237 240 242 245 248 252 255 257 259 260 258 250 239 237 240 244 244 240 236 241 253 255 251 253 262 272 283 295 310 326 333 334 335 337 338 334 332 339 345 345 344 349 354 359 3 4 4 4 6 7 8 9 9 9 8 6 6 6 7 7 6 5 4 3 3 3 3 2 3 4 4 4 5 4 3 1
229 227 227 227 229 231 232 233 235 238 241 243 246 250 255 258 258 260 262 260 248 233 228 236 242 238 234 235 243 249 245 244 251 261 270 281 294 312 326 330 329 330 334 334 330 333 341 344 344 347 353 359 4 7 8 7 8 9 10 11 11 12 12 11 9 8 8 8 8 7 6 4 3 2 3 3 3 3 4 4 4 5 6 5 3
231 229 228 229 232 235 236 236 238 241 243 246 248 250 254 257 258 261 264 261 248 233 220 225 236 233 230 236 241 240 237 240 250 257 264 276 294 313 321 321 320 324 330 329 327 335 342 342 345 351 357 5 10 12 12 12 14 14 14 14 12 12 12 11 10 9 9 8 8 7 6 5 3 2 1 2 3 4 4 4 4 5 6 7 6
232 231 231 232 235 238 240 239 241 244 248 252 255 256 260 266 265 263 262 254 245 235 220 222 232 230 229 235 234 230 232 239 246 252 258 272 292 306 309 307 309 318 324 322 324 335 340 341 348 356 3 12 17 18 18 17 17 18 18 17 14 13 11 10 10 9 8 8 7 6 6 5 3 2 1 1 2 3 4 4 5 5 6 8 9
233 233 234 234 236 240 242 242 243 247 251 257 262 263 267 276 273 263 255 240 228 226 223 223 226 227 229 231 225 223 231 237 241 247 254 268 285 291 293 293 299 312 315 313 321 331 335 341 352 2 12 20 22 22 21 19 18 17 17 16 15 14 12 10 9 8 7 7 5 3 3 3 3 2 2 2 3 3 3 4 6 6 7 8 9
235 235 236 238 238 240 244 246 247 250 256 264 269 267 268 272 268 253 238 220 213 220 224 221 221 225 227 224 219 222 230 235 238 244 251 263 273 273 276 280 288 302 302 301 316 326 329 340 358 11 20 24 23 22 20 17 16 15 13 12 11 10 9 8 7 6 6 5 4 2 1 1 1 2 3 4 4 4 4 5 6 7 8 8 8
236 235 237 240 243 244 248 251 254 258 264 270 270 266 264 264 254 236 224 217 218 224 225 219 220 224 223 218 217 223 228 232 237 242 248 256 259 258 262 268 276 284 283 286 306 314 319 339 2 17 24 25 21 18 16 14 12 11 10 9 8 6 4 4 3 3 2 1 0 360 359 359 359 1 3 5 6 7 6 5 6 7 9 9 8
236 236 237 241 246 251 253 256 258 260 265 268 265 262 261 254 236 225 224 226 227 227 222 219 222 224 219 215 218 222 226 231 237 243 247 249 249 248 251 255 258 262 262 267 284 294 307 335 1 17 22 22 16 11 9 9 7 7 7 6 5 3 2 1 0 360 358 357 356 356 355 356 357 359 2 4 6 8 8 7 7 8 8 9 8
234 235 235 237 241 247 250 253 255 255 256 259 261 262 258 244 228 224 227 228 228 226 221 222 225 223 217 216 219 221 224 229 236 243 247 246 244 244 245 244 241 243 246 249 256 269 293 329 353 10 16 15 9 4 3 3 3 3 4 3 2 1 360 359 358 356 355 353 353 353 352 353 355 358 1 3 5 7 8 9 9 8 8 8 7
220 219 223 230 235 241 246 247 248 248 249 252 255 257 252 238 226 226 229 229 227 224 221 224 226 221 217 216 218 220 223 227 234 241 245 245 243 241 239 236 233 233 234 233 240 253 280 323 346 360 6 5 1 357 357 358 360 1 1 1 359 358 358 357 355 353 352 351 351 350 350 352 354 357 359 1 4 6 7 9 10 9 9 9 8
213 216 223 232 239 244 246 244 240 240 244 248 251 252 245 234 226 226 228 229 227 223 223 225 224 219 217 218 219 220 222 225 231 237 241 241 240 238 235 231 229 227 227 230 239 250 275 311 334 349 354 354 353 351 352 355 357 359 359 358 357 356 355 353 352 350 350 350 349 349 350 352 354 355 357 359 2 3 5 8 10 9 10 10 9
215 221 225 233 241 247 248 243 236 236 242 247 249 247 238 230 228 229 229 229 228 225 226 228 223 218 217 218 219 221 223 226 230 233 236 236 235 235 232 227 225 224 225 232 243 254 276 301 320 336 344 345 345 345 347 351 354 356 357 355 354 353 352 350 349 349 349 349 349 350 351 352 353 354 356 356 357 359 1 5 8 9 11 11 9
226 224 225 232 242 249 250 244 239 239 243 247 248 243 233 227 229 232 232 231 229 228 230 229 223 217 216 218 219 222 223 225 228 231 233 233 232 231 228 224 223 223 225 236 249 262 280 297 312 327 336 340 340 341 343 348 352 353 353 352 350 350 349 348 348 348 348 348 349 350 351 352 352 353 353 353 353 354 357 0 3 6 10 11 12
235 223 222 230 241 247 245 242 241 242 242 245 247 240 230 225 227 232 234 231 229 230 232 230 223 217 216 217 220 222 223 224 227 230 231 231 230 228 225 222 221 221 228 240 252 268 283 296 309 322 332 336 337 339 341 345 348 349 349 349 348 347 346 346 345 346 346 347 348 349 350 351 351 350 350 350 351 352 354 356 358 1 5 8 11
232 216 217 231 243 244 239 237 240 242 241 244 246 240 232 228 229 231 233 232 230 232 233 229 223 219 218 218 219 221 221 222 225 228 229 229 228 226 223 221 221 222 229 242 256 272 284 294 305 317 328 334 336 337 339 342 344 345 346 346 345 344 343 343 343 343 343 344 345 347 348 349 349 348 348 348 350 351 352 353 355 358 0 3 6
225 213 216 232 241 239 235 234 237 239 242 245 245 237 232 231 232 233 234 230 228 232 233 228 223 220 218 217 218 219 219 220 223 226 226 226 226 224 221 220 221 223 230 242 257 272 283 292 303 316 327 333 335 336 338 340 340 341 342 342 341 341 341 341 341 340 340 341 342 344 345 346 347 347 347 347 348 349 351 352 353 355 357 359 2
227 220 222 233 239 238 239 241 242 243 244 244 239 232 227 228 229 231 230 225 223 225 223 219 219 220 219 216 215 214 214 216 220 223 224 225 225 222 220 221 222 225 232 243 257 271 282 290 301 315 326 332 333 334 336 338 338 337 338 339 339 339 339 339 339 338 338 339 341 342 343 344 345 346 346 346 346 347 349 350 351 352 354 357 359
230 224 225 234 240 241 243 246 244 244 244 241 234 227 223 225 228 228 226 222 221 220 216 213 213 214 214 214 213 213 214 217 219 219 220 222 223 221 219 221 225 229 235 245 257 270 281 290 301 314 324 329 331 332 334 334 334 333 334 336 337 338 338 339 339 339 339 341 342 343 344 344 345 345 346 345 345 345 347 349 349 350 351 354 357
229 223 225 235 243 244 246 248 246 245 247 245 238 228 222 223 228 230 228 223 219 217 215 215 215 214 211 212 213 214 216 218 218 217 218 220 221 220 220 222 227 232 239 248 260 272 282 292 302 312 320 325 327 328 330 330 330 330 332 334 335 336 338 339 340 341 343 344 345 345 345 346 346 346 346 346 345 344 345 346 348 349 350 352 355
222 218 224 236 243 243 246 249 250 253 253 248 241 232 225 224 227 229 230 228 223 219 217 217 218 218 216 216 217 215 214 214 213 214 217 219 221 220 220 223 228 233 242 251 263 275 285 293 301 309 317 322 323 324 326 327 327 328 330 332 334 335 337 340 342 343 345 346 347 347 347 347 348 348 347 347 346 345 344 344 346 349 350 351 353
219 216 224 236 240 240 244 248 254 262 261 250 241 234 227 226 227 227 228 228 226 223 221 219 219 219 219 221 222 220 218 216 215 214 215 218 221 221 222 224 229 235 243 254 265 276 285 294 300 307 314 319 320 321 323 324 325 327 329 332 333 335 337 341 343 344 346 346 347 347 348 349 349 349 349 348 347 346 345 344 345 347 349 351 352
224 220 224 236 240 240 244 248 253 261 264 257 251 244 236 232 230 228 226 225 224 223 222 221 221 220 220 221 221 221 221 221 219 216 216 219 221 222 224 227 231 237 245 254 265 274 283 291 297 303 310 315 317 319 321 322 323 326 328 330 332 334 337 340 343 344 345 346 346 347 349 350 350 350 349 348 348 348 347 345 345 347 349 351 353
228 223 224 232 239 240 243 247 251 257 263 266 264 257 248 242 238 234 229 224 220 220 221 222 222 222 221 220 220 219 220 220 219 218 219 221 223 224 226 228 233 239 245 254 264 273 281 288 294 300 307 312 314 316 317 320 322 324 326 328 330 332 336 339 341 343 344 345 346 347 348 349 350 351 350 349 349 349 350 349 348 348 349 351 353
230 225 224 230 237 240 243 248 252 256 261 266 268 263 253 245 241 237 232 224 217 215 217 219 220 222 221 220 219 219 218 218 219 219 221 224 226 227 228 231 235 241 247 254 262 270 279 286 291 298 304 308 311 312 314 317 320 322 324 326 328 331 334 337 339 341 342 343 345 346 347 349 351 352 352 352 352 352 352 352 351 350 350 351 352
232 225 223 228 234 238 243 247 251 255 260 265 268 267 258 248 242 237 232 223 216 214 215 217 218 220 220 218 218 219 219 219 219 220 223 226 228 229 230 234 238 243 249 256 262 269 276 283 289 295 301 304 307 309 311 315 319 321 323 324 326 329 333 335 336 338 340 342 344 345 347 349 351 352 353 353 354 354 355 354 355 354 352 352 353
234 225 224 228 233 236 240 245 249 254 258 260 264 267 264 256 248 242 235 225 217 215 217 217 218 219 219 217 217 218 218 219 219 221 224 227 229 230 232 235 239 244 249 255 261 268 275 281 286 292 297 300 304 307 310 314 318 320 322 323 325 328 330 332 334 335 336 340 343 345 346 349 351 352 353 354 354 356 357 357 357 358 357 356 356
235 227 225 228 232 235 240 244 247 249 253 255 257 262 264 258 252 248 242 232 222 217 218 219 219 218 218 217 217 217 218 218 218 220 224 226 228 230 232 235 239 244 249 255 261 267 273 279 284 289 294 298 301 305 308 313 317 319 320 321 323 326 328 330 331 332 334 338 342 343 345 348 350 351 352 353 354 356 358 360 0 1 2 2 1
234 227 225 227 232 235 239 242 243 245 249 253 257 261 261 256 251 248 243 235 226 220 219 220 220 219 219 219 219 219 219 219 218 220 223 225 227 230 232 235 239 244 249 255 261 267 272 277 282 286 291 296 300 303 307 311 315 317 319 320 322 324 326 328 329 331 333 336 339 341 343 346 348 349 350 351 354 356 358 1 2 3 4 5 6
231 225 224 227 231 235 238 241 244 247 252 257 260 260 257 253 248 243 238 232 225 221 221 221 220 219 221 222 222 221 221 220 219 220 223 225 227 230 233 235 239 244 250 255 260 265 271 276 281 285 289 294 298 302 305 309 313 316 318 319 321 323 325 326 327 328 330 333 336 337 339 342 345 346 345 346 349 352 355 357 359 0 1 2 3
233 227 225 228 232 236 240 243 246 248 252 255 255 252 248 245 244 241 234 228 224 222 222 221 219 219 222 224 224 224 224 222 220 221 224 227 230 232 235 238 241 246 251 255 259 264 270 275 279 283 287 292 297 301 305 308 312 314 316 318 319 320 321 323 324 325 328 331 332 333 334 337 340 342 341 340 340 344 347 350 352 353 355 356 357
232 227 226 228 232 236 241 244 245 247 251 251 247 244 242 242 243 240 232 225 222 223 223 222 220 221 224 226 225 225 225 224 223 223 226 229 233 235 238 241 245 248 251 255 259 264 268 273 277 282 287 292 296 300 303 306 309 312 314 315 316 316 317 319 321 323 325 326 328 328 329 332 336 340 341 338 335 336 341 345 347 348 350 351 353
234 228 226 228 232 236 240 243 244 246 249 248 244 245 247 247 245 241 234 226 222 223 224 224 223 224 226 227 226 224 224 224 224 224 227 231 235 238 241 244 247 249 252 255 259 263 267 272 277 283 288 292 296 299 302 305 307 309 311 311 312 313 314 315 317 318 320 322 324 325 327 330 335 339 341 339 336 334 337 341 343 344 345 347 348
237 233 231 232 235 237 241 244 244 244 245 246 249 253 254 252 248 243 235 227 223 222 223 224 225 226 227 228 226 223 222 223 224 225 228 233 236 239 242 245 248 250 253 256 260 264 268 273 279 284 288 291 295 297 300 303 305 306 306 307 308 309 311 312 313 315 318 320 322 324 326 329 332 335 336 336 334 332 332 333 334 335 336 338 340
235 235 237 237 238 239 242 244 245 245 246 251 256 257 255 252 249 243 235 228 223 222 221 222 223 226 228 228 225 222 222 223 224 226 230 235 237 240 243 245 249 252 255 258 261 265 269 274 279 284 287 291 293 296 299 301 302 302 302 303 305 307 308 309 311 315 317 319 320 322 324 327 328 329 329 329 328 325 323 323 325 325 326 327 329
235 240 244 242 239 239 239 240 243 245 248 250 250 249 247 248 248 244 236 229 224 221 221 221 223 225 227 226 223 220 221 223 224 227 231 236 238 240 242 245 248 251 254 258 261 265 269 274 279 283 286 289 292 295 298 298 299 299 300 301 303 305 306 308 312 314 316 317 318 319 320 322 324 324 324 324 323 319 316 315 316 318 318 319 321
238 246 250 246 241 241 244 246 247 247 246 245 243 242 243 246 247 244 237 230 225 222 221 221 223 225 225 223 220 219 221 224 226 228 232 236 239 241 243 244 246 250 253 257 260 264 269 274 278 281 284 288 290 293 294 295 295 297 298 300 302 304 305 308 311 313 314 314 314 315 316 317 318 319 319 319 319 317 312 310 311 313 314 315 317
239 247 251 249 245 244 245 246 245 242 239 239 240 241 244 246 247 245 239 233 228 225 222 220 222 224 223 221 219 220 223 226 228 230 233 236 239 242 243 245 247 250 254 257 261 265 269 273 277 280 284 287 289 291 292 293 294 295 297 299 301 303 304 307 309 310 311 311 311 311 311 311 311 313 314 315 315 314 311 309 309 311 312 313 314
243 246 248 249 250 248 244 241 238 236 235 237 239 242 244 245 245 245 242 236 232 228 224 221 221 222 221 220 221 223 225 228 231 232 234 236 239 242 245 247 249 252 254 257 261 265 269 273 277 281 284 286 289 291 292 293 294 295 298 299 300 301 303 305 306 307 308 309 308 307 306 305 305 306 308 309 310 310 308 307 308 309 310 311 312
248 249 247 247 249 249 245 240 237 235 236 238 241 244 245 243 242 243 242 239 236 231 224 220 220 220 220 221 223 225 227 230 232 233 235 237 240 243 245 248 250 253 255 258 262 266 270 274 278 281 284 287 289 291 291 292 294 296 298 298 299 299 301 302 304 304 305 306 305 304 302 300 299 299 301 303 304 305 305 305 305 305 306 307 308
Height
3134 3134 3135 3137 3138 3140 3142 3144 3145 3147 3148 3149 3150 3151 3151 3152 3152 3153 3153 3153 3154 3154 3154 3154 3154 3153 3154 3154 3153 3153 3153 3153 3153 3152 3152 3152 3152 3152 3151 3151 3150 3150 3149 3148 3146 3145 3144 3142 3141 3139 3138 3136 3135 3133 3132 3130 3128 3125 3123 3121 3119 3117 3115 3112 3110 3107 3104 3101 3097 3093 3089 3085 3082 3078 3075 3070 3066 3061 3057 3052 3047 3042 3037 3033 3030
3133 3134 3135 3136 3138 3139 3141 3143 3144 3146 3147 3148 3148 3149 3150 3150 3151 3151 3151 3151 3152 3152 3152 3152 3152 3152 3152 3152 3152 3152 3152 3152 3151 3151 3151 3151 3151 3151 3150 3150 3149 3148 3147 3146 3145 3144 3142 3141 3139 3138 3137 3135 3134 3132 3131 3129 3127 3124 3122 3120 3118 3115 3112 3110 3107 3104 3101 3098 3095 3091 3088 3084 3080 3076 3072 3068 3063 3058 3053 3049 3044 3039 3034 3029 3025
3131 3133 3134 3135 3137 3138 3140 3142 3143 3144 3145 3146 3147 3147 3148 3148 3149 3149 3149 3150 3150 3150 3150 3150 3150 3150 3150 3150 3151 3151 3150 3150 3150 3150 3150 3150 3150 3150 3149 3149 3148 3147 3146 3145 3144 3143 3141 3140 3138 3137 3136 3134 3133 3131 3130 3128 3126 3124 3122 3119 3117 3114 3111 3108 3105 3102 3099 3096 3092 3089 3085 3082 3078 3074 3070 3065 3060 3055 3050 3045 3040 3036 3031 3026 3021
3130 3131 3133 3134 3136 3137 3139 3140 3141 3142 3143 3144 3145 3146 3146 3146 3147 3147 3148 3148 3148 3148 3148 3149 3149 3149 3149 3149 3149 3149 3149 3149 3149 3149 3149 3149 3149 3148 3148 3148 3147 3146 3145 3144 3143 3141 3140 3138 3137 3136 3135 3133 3132 3130 3129 3127 3125 3123 3120 3118 3116 3113 3110 3107 3104 3101 3097 3094 3091 3087 3084 3080 3076 3072 3068 3063 3058 3052 3047 3042 3036 3033 3029 3023 3017
3128 3130 3132 3133 3135 3136 3137 3138 3139 3140 3141 3142 3143 3144 3144 3145 3145 3146 3146 3146 3147 3147 3147 3147 3147 3147 3148 3147 3147 3147 3147 3147 3147 3148 3148 3148 3148 3147 3147 3147 3146 3145 3144 3143 3141 3140 3139 3137 3136 3135 3134 3132 3131 3129 3128 3126 3124 3122 3119 3117 3115 3112 3110 3107 3103 3100 3097 3093 3090 3086 3082 3079 3075 3071 3065 3060 3055 3049 3044 3039 3034 3029 3025 3020 3015
3127 3128 3130 3132 3134 3135 3136 3137 3137 3138 3139 3140 3141 3142 3142 3143 3144 3144 3145 3145 3145 3145 3146 3146 3146 3146 3146 3146 3146 3146 3146 3146 3146 3147 3147 3147 3146 3146 3146 3146 3145 3144 3143 3141 3140 3139 3137 3136 3135 3134 3133 3132 3130 3128 3127 3125 3123 3121 3118 3116 3114 3111 3109 3106 3103 3099 3096 3093 3089 3085 3080 3077 3073 3068 3063 3057 3051 3045 3040 3036 3031 3026 3021 3017 3012
3125 3127 3129 3130 3132 3133 3134 3135 3136 3137 3138 3138 3139 3140 3141 3142 3142 3143 3143 3144 3144 3144 3144 3144 3144 3144 3144 3144 3144 3144 3144 3145 3145 3146 3146 3145 3145 3145 3145 3144 3143 3142 3141 3140 3139 3137 3136 3136 3135 3134 3132 3131 3129 3127 3125 3124 3121 3119 3117 3115 3113 3110 3108 3105 3102 3098 3095 3091 3087 3083 3078 3074 3070 3066 3060 3055 3050 3044 3037 3031 3027 3023 3018 3013 3008
3124 3125 3127 3129 3130 3131 3132 3133 3134 3135 3136 3137 3138 3138 3139 3140 3141 3141 3142 3142 3142 3142 3142 3142 3143 3143 3143 3142 3142 3143 3143 3144 3144 3144 3145 3144 3144 3144 3144 3143 3142 3141 3140 3139 3137 3136 3135 3135 3134 3133 3131 3130 3129 3127 3125 3122 3120 3118 3116 3114 3112 3109 3107 3104 3100 3097 3093 3089 3086 3081 3077 3072 3068 3064 3059 3053 3047 3042 3036 3029 3024 3018 3014 3011 3006
3122 3124 3125 3127 3128 3129 3130 3131 3132 3133 3134 3135 3136 3136 3137 3138 3138 3139 3139 3139 3140 3140 3140 3141 3141 3141 3141 3141 3141 3142 3142 3143 3143 3143 3143 3143 3143 3143 3142 3141 3140 3140 3139 3137 3136 3135 3134 3134 3132 3131 3130 3128 3127 3125 3123 3121 3119 3117 3115 3113 3111 3108 3105 3102 3099 3095 3091 3087 3083 3079 3075 3070 3065 3061 3056 3051 3045 3040 3034 3029 3023 3017 3012 3009 3004
3120 3122 3123 3124 3126 3127 3128 3129 3131 3132 3132 3133 3134 3134 3135 3135 3136 3136 3137 3137 3137 3138 3138 3139 3139 3139 3139 3140 3140 3140 3141 3141 3142 3142 3142 3142 3142 3141 3141 3140 3139 3138 3137 3136 3135 3134 3134 3133 3131 3130 3129 3127 3125 3123 3121 3119 3117 3115 3113 3111 3109 3106 3104 3101 3097 3094 3090 3086 3081 3077 3073 3068 3063 3058 3054 3049 3045 3039 3033 3026 3020 3014 3009 3004 3001
3118 3119 3121 3122 3123 3125 3126 3127 3129 3130 3130 3131 3131 3132 3132 3132 3133 3134 3134 3135 3135 3136 3136 3137 3137 3138 3138 3138 3139 3139 3139 3140 3140 3141 3141 3141 3140 3140 3139 3138 3138 3137 3136 3135 3134 3133 3132 3131 3130 3129 3128 3126 3124 3122 3120 3118 3116 3114 3112 3110 3107 3104 3102 3099 3095 3092 3089 3085 3081 3076 3072 3067 3062 3058 3053 3048 3043 3037 3032 3026 3019 3013 3006 2999 2995
3115 3117 3118 3120 3121 3122 3124 3125 3126 3127 3128 3128 3129 3129 3129 3130 3130 3131 3132 3132 3133 3134 3134 3135 3136 3136 3137 3137 3137 3138 3138 3138 3139 3139 3139 3139 3139 3138 3138 3137 3136 3136 3135 3134 3134 3133 3132 3130 3129 3128 3127 3125 3123 3121 3120 3118 3116 3114 3112 3109 3107 3104 3101 3097 3094 3091 3088 3085 3080 3076 3071 3067 3062 3057 3052 3047 3042 3037 3032 3027 3021 3014 3007 3000 2995
3113 3114 3116 3117 3118 3120 3121 3122 3124 3124 3125 3125 3126 3126 3127 3127 3128 3129 3129 3130 3131 3131 3132 3133 3134 3135 3136 3136 3136 3136 3136 3137 3137 3138 3138 3138 3137 3137 3136 3136 3135 3135 3134 3134 3133 3132 3131 3130 3129 3128 3126 3125 3123 3121 3119 3118 3116 3114 3112 3109 3107 3104 3101 3098 3095 3091 3088 3084 3081 3076 3071 3067 3062 3057 3053 3048 3042 3037 3032 3028 3023 3017 3010 3003 2997
3110 3112 3113 3114 3116 3117 3118 3120 3121 3121 3122 3122 3123 3124 3124 3125 3126 3127 3127 3128 3128 3128 3129 3131 3133 3133 3134 3134 3134 3134 3135 3135 3136 3136 3136 3136 3136 3135 3135 3134 3134 3134 3133 3133 3132 3131 3130 3129 3128 3127 3126 3124 3122 3121 3119 3118 3116 3114 3111 3109 3107 3105 3102 3099 3096 3093 3089 3085 3081 3077 3073 3068 3063 3059 3054 3050 3045 3039 3034 3029 3024 3019 3013 3007 2999
3107 3109 3110 3112 3113 3115 3116 3117 3118 3119 3120 3120 3120 3121 3121 3122 3123 3124 3125 3126 3126 3125 3125 3128 3131 3132 3132 3132 3133 3133 3133 3134 3134 3135 3135 3135 3134 3134 3133 3133 3133 3133 3132 3132 3131 3130 3129 3129 3128 3127 3125 3124 3122 3121 3119 3118 3116 3114 3111 3109 3106 3104 3101 3099 3096 3092 3089 3085 3082 3078 3074 3070 3065 3060 3056 3051 3047 3042 3037 3031 3025 3020 3015 3008 3000
3104 3106 3108 3109 3111 3112 3113 3115 3116 3117 3117 3118 3118 3119 3119 3120 3121 3122 3122 3123 3124 3125 3125 3126 3129 3130 3130 3131 3131 3131 3131 3132 3133 3133 3133 3133 3133 3132 3132 3132 3132 3132 3131 3131 3130 3129 3129 3128 3127 3126 3125 3123 3122 3121 3119 3118 3116 3114 3112 3109 3107 3104 3101 3098 3096 3092 3089 3086 3082 3079 3076 3072 3068 3063 3058 3053 3047 3042 3038 3033 3026 3020 3013 3006 2998
3101 3103 3105 3107 3108 3109 3110 3112 3113 3114 3115 3116 3116 3117 3118 3118 3118 3118 3119 3119 3122 3123 3124 3125 3126 3128 3128 3128 3129 3129 3130 3130 3131 3132 3132 3131 3131 3131 3131 3131 3131 3131 3130 3130 3129 3128 3128 3127 3126 3125 3124 3123 3122 3120 3119 3117 3115 3113 3112 3110 3107 3105 3102 3100 3097 3094 3091 3088 3084 3081 3078 3075 3071 3066 3061 3055 3048 3042 3036 3030 3024 3018 3010 3003 2996
3099 3101 3102 3104 3105 3107 3108 3109 3110 3112 3113 3114 3114 3114 3115 3115 3115 3115 3116 3117 3119 3120 3121 3123 3124 3125 3126 3126 3127 3127 3128 3129 3129 3130 3130 3130 3130 3130 3130 3130 3130 3129 3129 3129 3128 3127 3127 3126 3125 3124 3123 3122 3121 3120 3118 3117 3115 3113 3111 3109 3106 3104 3102 3100 3098 3095 3092 3089 3086 3083 3080 3076 3072 3067 3062 3056 3050 3043 3036 3029 3024 3018 3011 3003 2997
3096 3098 3100 3101 3103 3104 3106 3107 3108 3110 3111 3111 3111 3111 3111 3112 3112 3113 3114 3116 3117 3118 3120 3121 3122 3123 3123 3124 3125 3126 3127 3127 3128 3128 3128 3128 3128 3129 3129 3129 3128 3128 3128 3127 3127 3126 3126 3125 3124 3123 3122 3121 3120 3119 3118 3116 3114 3112 3110 3108 3105 3103 3100 3098 3096 3093 3090 3088 3085 3082 3079 3076 3072 3067 3063 3057 3051 3045 3038 3031 3025 3019 3012 3006 3000
3093 3096 3098 3099 3101 3102 3103 3104 3105 3107 3108 3108 3108 3108 3109 3109 3110 3111 3113 3114 3115 3117 3118 3119 3120 3121 3121 3122 3123 3124 3125 3125 3126 3126 3126 3127 3127 3127 3127 3127 3127 3127 3127 3126 3126 3125 3125 3124 3123 3122 3121 3120 3119 3118 3117 3115 3113 3111 3109 3106 3104 3102 3099 3096 3093 3091 3088 3086 3083 3081 3078 3075 3071 3067 3062 3057 3052 3046 3040 3034 3027 3020 3014 3009 3004
3091 3093 3096 3097 3098 3099 3100 3101 3102 3104 3105 3105 3105 3106 3107 3107 3109 3110 3111 3112 3114 3115 3116 3117 3118 3119 3119 3120 3122 3123 3123 3124 3124 3124 3124 3125 3125 3126 3126 3126 3126 3126 3126 3125 3125 3124 3124 3123 3122 3121 3120 3119 3118 3117 3116 3114 3112 3109 3107 3105 3102 3100 3098 3095 3092 3090 3088 3085 3083 3080 3077 3074 3071 3067 3062 3057 3052 3047 3042 3036 3030 3024 3018 3012 3007
3090 3092 3094 3095 3095 3096 3097 3098 3099 3101 3101 3102 3103 3103 3104 3105 3107 3108 3109 3111 3112 3113 3114 3115 3116 3117 3118 3119 3120 3121 3121 3122 3122 3122 3123 3123 3124 3124 3124 3124 3124 3124 3124 3124 3124 3123 3123 3122 3121 3120 3119 3118 3117 3116 3114 3112 3110 3108 3106 3103 3101 3099 3096 3094 3092 3090 3087 3085 3082 3079 3076 3073 3069 3066 3062 3057 3053 3048 3043 3038 3033 3028 3023 3017 3010
3088 3090 3091 3092 3093 3094 3095 3095 3096 3098 3099 3099 3100 3101 3101 3102 3104 3106 3108 3109 3110 3111 3112 3113 3114 3115 3116 3117 3118 3119 3119 3120 3120 3121 3121 3122 3122 3122 3123 3123 3123 3123 3123 3123 3123 3122 3121 3121 3120 3119 3118 3117 3116 3115 3113 3111 3109 3107 3104 3102 3100 3098 3096 3094 3092 3090 3087 3085 3082 3079 3075 3071 3068 3064 3060 3056 3053 3049 3045 3041 3037 3032 3026 3021 3016
3085 3087 3088 3089 3090 3091 3092 3093 3094 3095 3096 3097 3097 3098 3098 3100 3102 3104 3105 3107 3108 3109 3110 3111 3112 3113 3114 3115 3116 3117 3117 3118 3118 3119 3119 3120 3121 3121 3121 3121 3121 3122 3122 3122 3121 3121 3120 3120 3119 3118 3117 3116 3115 3114 3112 3110 3108 3106 3104 3102 3100 3098 3096 3094 3092 3090 3087 3084 3082 3078 3074 3070 3066 3063 3059 3055 3052 3050 3047 3043 3039 3035 3030 3024 3019
3083 3084 3085 3087 3087 3088 3089 3090 3091 3092 3093 3094 3094 3095 3096 3097 3099 3101 3103 3104 3105 3106 3108 3109 3110 3111 3112 3113 3114 3115 3115 3115 3116 3117 3118 3118 3119 3119 3119 3120 3120 3120 3120 3120 3120 3120 3119 3119 3118 3117 3116 3114 3113 3112 3110 3108 3106 3104 3103 3101 3099 3097 3095 3093 3091 3089 3086 3083 3081 3077 3074 3070 3066 3062 3059 3056 3052 3049 3046 3042 3039 3035 3031 3027 3022
3080 3081 3083 3084 3085 3085 3086 3087 3088 3090 3090 3091 3091 3092 3093 3095 3097 3098 3100 3101 3103 3104 3105 3106 3107 3109 3110 3111 3111 3112 3113 3113 3114 3115 3116 3116 3117 3117 3118 3118 3119 3119 3119 3119 3119 3119 3118 3118 3117 3116 3114 3113 3112 3111 3109 3107 3105 3103 3101 3099 3098 3096 3094 3092 3090 3088 3085 3082 3079 3077 3073 3070 3067 3063 3060 3056 3052 3048 3044 3041 3037 3033 3030 3026 3022
3076 3078 3079 3081 3082 3082 3083 3084 3086 3087 3087 3088 3089 3090 3091 3093 3094 3096 3098 3099 3100 3102 3103 3104 3105 3107 3107 3108 3109 3110 3110 3111 3111 3112 3113 3114 3115 3116 3116 3117 3117 3117 3118 3118 3118 3117 3117 3116 3115 3114 3113 3112 3111 3109 3108 3106 3104 3102 3100 3098 3096 3095 3093 3091 3088 3086 3083 3081 3079 3076 3073 3070 3067 3063 3059 3055 3052 3048 3043 3039 3036 3032 3028 3025 3021
3073 3075 3076 3078 3079 3079 3080 3081 3082 3084 3085 3086 3087 3088 3089 3091 3092 3094 3095 3096 3098 3099 3101 3102 3103 3104 3105 3105 3106 3107 3107 3108 3109 3110 3111 3112 3113 3114 3114 3115 3115 3116 3116 3116 3116 3116 3115 3115 3114 3113 3111 3110 3109 3108 3106 3104 3102 3101 3099 3097 3095 3094 3092 3089 3087 3084 3082 3080 3077 3075 3072 3069 3066 3062 3059 3055 3051 3047 3043 3039 3035 3032 3028 3024 3020
3071 3072 3074 3075 3076 3076 3077 3078 3079 3080 3082 3083 3083 3084 3086 3087 3089 3091 3092 3093 3095 3096 3098 3099 3100 3101 3102 3102 3103 3104 3104 3105 3106 3107 3108 3110 3111 3112 3112 3113 3114 3114 3114 3114 3114 3114 3114 3113 3112 3111 3110 3108 3107 3106 3105 3103 3101 3099 3097 3096 3094 3093 3090 3088 3086 3083 3081 3078 3076 3074 3071 3068 3064 3061 3058 3054 3050 3047 3043 3039 3035 3032 3028 3024 3020
3067 3069 3071 3072 3072 3073 3074 3075 3076 3077 3078 3079 3079 3080 3081 3083 3085 3086 3088 3090 3091 3092 3094 3094 3095 3096 3098 3099 3100 3100 3101 3102 3103 3105 3106 3107 3109 3110 3111 3111 3112 3112 3112 3112 3112 3112 3112 3111 3110 3109 3108 3107 3106 3105 3103 3102 3100 3098 3096 3094 3093 3091 3089 3087 3084 3082 3079 3077 3074 3072 3069 3066 3063 3059 3056 3053 3050 3046 3043 3039 3035 3031 3028 3024 3020
3064 3066 3068 3069 3069 3070 3071 3072 3073 3074 3075 3075 3076 3077 3077 3079 3081 3083 3085 3086 3087 3088 3089 3090 3090 3092 3094 3095 3095 3096 3098 3099 3101 3102 3103 3105 3106 3108 3108 3109 3110 3110 3110 3110 3110 3110 3110 3109 3108 3107 3106 3105 3104 3103 3102 3100 3099 3097 3095 3093 3091 3089 3087 3085 3083 3080 3078 3076 3073 3070 3067 3064 3061 3058 3054 3051 3048 3045 3042 3039 3036 3033 3028 3025 3021
3061 3063 3065 3066 3067 3068 3068 3069 3070 3071 3071 3072 3072 3073 3074 3075 3078 3080 3081 3082 3084 3084 3084 3085 3088 3090 3091 3091 3092 3093 3095 3096 3098 3099 3101 3103 3104 3105 3106 3107 3107 3107 3108 3108 3108 3108 3108 3107 3106 3105 3104 3103 3102 3102 3101 3099 3097 3096 3094 3092 3090 3088 3086 3084 3081 3079 3076 3074 3071 3069 3066 3063 3060 3057 3053 3050 3047 3044 3041 3038 3035 3033 3029 3026 3022
3059 3061 3063 3064 3064 3064 3065 3066 3067 3067 3068 3068 3069 3070 3071 3072 3074 3075 3077 3078 3080 3080 3081 3082 3085 3087 3088 3089 3090 3091 3092 3094 3095 3097 3098 3100 3101 3103 3104 3104 3105 3105 3105 3106 3106 3106 3105 3105 3104 3103 3102 3101 3101 3100 3099 3097 3096 3094 3092 3090 3088 3086 3084 3082 3080 3078 3075 3072 3070 3067 3065 3062 3059 3056 3053 3050 3046 3043 3040 3037 3035 3032 3029 3026 3023
3056 3058 3060 3060 3061 3061 3062 3063 3064 3065 3065 3066 3067 3068 3069 3070 3071 3072 3073 3074 3076 3077 3079 3081 3082 3084 3086 3087 3088 3089 3090 3092 3093 3095 3096 3097 3099 3100 3101 3102 3102 3103 3103 3103 3104 3103 3103 3103 3102 3101 3100 3099 3098 3098 3097 3095 3094 3092 3090 3088 3086 3085 3082 3080 3078 3076 3074 3071 3069 3066 3063 3061 3058 3055 3052 3049 3046 3043 3040 3036 3034 3031 3028 3025 3022
3052 3054 3056 3057 3057 3058 3059 3060 3061 3062 3063 3064 3065 3066 3067 3068 3069 3070 3070 3071 3073 3075 3077 3079 3080 3082 3083 3085 3086 3087 3088 3090 3091 3092 3093 3094 3096 3097 3099 3100 3100 3100 3101 3101 3101 3101 3101 3100 3100 3099 3098 3097 3096 3096 3095 3093 3092 3090 3089 3087 3085 3083 3081 3078 3076 3074 3072 3070 3067 3065 3062 3060 3057 3054 3051 3047 3044 3041 3039 3036 3033 3030 3028 3025 3022
3049 3051 3052 3053 3054 3055 3056 3057 3058 3059 3061 3062 3062 3063 3063 3064 3066 3066 3067 3069 3070 3072 3074 3076 3077 3079 3081 3082 3083 3084 3085 3087 3088 3089 3090 3092 3093 3095 3096 3097 3098 3098 3098 3099 3099 3098 3098 3098 3097 3096 3095 3095 3094 3094 3093 3091 3090 3088 3086 3085 3083 3081 3079 3077 3075 3073 3071 3069 3066 3064 3061 3059 3056 3053 3050 3047 3044 3041 3038 3036 3033 3030 3028 3025 3022
3045 3047 3049 3050 3051 3051 3053 3054 3055 3056 3057 3058 3059 3059 3060 3060 3062 3063 3064 3065 3066 3068 3070 3072 3073 3075 3078 3079 3080 3081 3082 3084 3085 3086 3087 3089 3091 3092 3094 3095 3095 3096 3096 3096 3096 3096 3096 3095 3094 3094 3093 3093 3092 3091 3090 3089 3087 3086 3084 3083 3081 3079 3077 3075 3073 3071 3069 3067 3065 3063 3060 3058 3055 3052 3049 3047 3044 3041 3038 3036 3033 3031 3028 3026 3023
3042 3044 3045 3046 3047 3048 3050 3050 3051 3053 3054 3055 3056 3056 3056 3057 3058 3060 3061 3062 3063 3064 3065 3067 3069 3072 3075 3076 3077 3078 3079 3080 3081 3082 3084 3086 3088 3090 3091 3092 3092 3093 3093 3093 3093 3093 3093 3092 3092 3091 3091 3090 3090 3089 3088 3087 3085 3084 3082 3080 3079 3077 3075 3073 3071 3069 3068 3066 3064 3061 3059 3057 3054 3051 3049 3046 3044 3041 3038 3036 3033 3031 3029 3026 3023
3039 3041 3042 3043 3044 3045 3046 3047 3048 3049 3050 3051 3052 3053 3053 3054 3055 3056 3058 3059 3060 3061 3061 3063 3065 3069 3071 3072 3073 3074 3075 3076 3077 3079 3081 3083 3085 3086 3087 3088 3089 3090 3090 3090 3090 3090 3090 3090 3089 3089 3088 3088 3087 3086 3085 3084 3083 3081 3080 3078 3077 3075 3073 3071 3070 3068 3066 3064 3062 3060 3058 3056 3053 3051 3048 3046 3043 3041 3039 3036 3033 3031 3029 3026 3024
3036 3037 3039 3040 3041 3042 3042 3043 3044 3045 3047 3048 3048 3049 3050 3050 3051 3052 3054 3056 3057 3058 3059 3060 3063 3065 3067 3067 3068 3070 3071 3072 3074 3075 3077 3079 3081 3082 3083 3085 3086 3087 3087 3087 3087 3087 3087 3087 3086 3086 3086 3085 3084 3084 3083 3082 3080 3079 3077 3076 3075 3073 3071 3070 3068 3066 3064 3062 3061 3059 3057 3055 3053 3050 3048 3046 3043 3041 3039 3036 3034 3031 3029 3027 3024
3032 3034 3035 3036 3037 3038 3039 3040 3041 3042 3043 3044 3045 3046 3046 3047 3047 3048 3050 3052 3054 3055 3056 3058 3060 3062 3063 3064 3065 3067 3068 3068 3070 3071 3074 3076 3077 3079 3080 3081 3082 3083 3084 3084 3084 3084 3084 3084 3083 3083 3083 3082 3082 3081 3080 3079 3077 3076 3075 3073 3072 3071 3069 3068 3066 3064 3062 3061 3059 3057 3055 3053 3051 3049 3047 3045 3043 3041 3039 3036 3034 3032 3029 3027 3025
3029 3030 3031 3032 3033 3034 3035 3036 3037 3039 3039 3040 3041 3042 3043 3043 3044 3045 3046 3048 3050 3051 3052 3054 3057 3058 3059 3060 3062 3063 3064 3065 3066 3068 3071 3073 3074 3076 3077 3078 3079 3080 3081 3081 3081 3081 3081 3081 3080 3080 3080 3079 3079 3078 3077 3076 3075 3073 3072 3071 3070 3068 3067 3065 3064 3062 3060 3059 3057 3055 3053 3052 3050 3048 3046 3044 3042 3040 3038 3036 3034 3032 3030 3027 3025
3025 3026 3027 3029 3030 3031 3032 3033 3034 3035 3036 3037 3038 3039 3039 3039 3040 3041 3042 3044 3046 3048 3050 3052 3054 3055 3056 3057 3058 3060 3062 3064 3065 3066 3068 3070 3071 3073 3074 3075 3076 3077 3077 3077 3078 3078 3078 3078 3077 3077 3077 3076 3076 3075 3074 3073 3072 3071 3069 3068 3067 3066 3065 3063 3061 3060 3058 3056 3055 3053 3051 3050 3048 3047 3045 3043 3041 3039 3037 3036 3033 3031 3029 3027 3025
3022 3023 3024 3025 3027 3028 3029 3030 3031 3032 3033 3034 3034 3035 3035 3036 3037 3038 3039 3041 3043 3045 3047 3049 3051 3052 3053 3054 3055 3057 3060 3062 3062 3063 3065 3066 3068 3070 3071 3072 3073 3073 3074 3074 3074 3074 3075 3074 3074 3074 3074 3073 3073 3072 3071 3070 3069 3068 3066 3065 3064 3063 3062 3061 3059 3057 3056 3054 3052 3051 3049 3048 3047 3045 3043 3041 3039 3038 3036 3034 3032 3030 3028 3026 3024
3020 3020 3021 3022 3023 3024 3025 3026 3027 3028 3029 3030 3031 3032 3032 3033 3034 3034 3036 3037 3039 3041 3044 3046 3048 3049 3049 3051 3053 3055 3057 3058 3059 3060 3061 3063 3065 3066 3067 3068 3069 3070 3070 3071 3071 3071 3071 3071 3071 3071 3071 3070 3069 3069 3068 3067 3066 3065 3064 3062 3061 3060 3059 3058 3056 3055 3053 3051 3050 3048 3047 3045 3044 3043 3041 3039 3038 3036 3034 3032 3030 3028 3027 3024 3022
3017 3017 3018 3019 3020 3021 3022 3023 3023 3024 3025 3027 3028 3029 3029 3030 3030 3031 3032 3034 3035 3037 3039 3041 3043 3045 3046 3048 3050 3052 3054 3055 3056 3057 3059 3060 3062 3063 3064 3064 3065 3066 3067 3068 3068 3068 3068 3068 3068 3068 3067 3067 3066 3065 3065 3064 3063 3062 3060 3059 3058 3057 3056 3055 3053 3052 3050 3049 3047 3045 3044 3043 3041 3040 3039 3037 3036 3034 3032 3030 3029 3027 3025 3023 3021
3014 3014 3015 3016 3017 3018 3019 3019 3020 3021 3022 3023 3024 3025 3026 3026 3027 3028 3029 3030 3032 3034 3036 3038 3040 3041 3043 3045 3047 3049 3050 3051 3052 3054 3055 3057 3058 3059 3060 3061 3062 3063 3064 3064 3065 3065 3065 3065 3065 3064 3064 3063 3063 3062 3061 3060 3059 3058 3057 3056 3055 3054 3053 3052 3050 3049 3047 3046 3044 3043 3041 3039 3038 3037 3036 3034 3033 3031 3029 3028 3026 3024 3023 3021 3019
3011 3012 3012 3014 3015 3016 3016 3017 3018 3018 3019 3020 3021 3021 3022 3022 3023 3024 3025 3027 3028 3030 3032 3034 3036 3038 3040 3042 3044 3046 3047 3048 3049 3051 3052 3054 3055 3056 3057 3058 3059 3060 3060 3061 3062 3062 3062 3061 3061 3061 3060 3060 3059 3059 3058 3057 3056 3055 3054 3053 3052 3051 3050 3049 3047 3046 3044 3043 3041 3040 3038 3036 3035 3034 3032 3031 3029 3028 3026 3025 3023 3022 3020 3018 3016
3009 3010 3010 3011 3012 3013 3014 3014 3015 3015 3016 3016 3017 3018 3018 3019 3020 3021 3022 3023 3024 3026 3028 3031 3033 3035 3037 3039 3041 3043 3044 3045 3046 3048 3049 3051 3052 3052 3053 3054 3055 3056 3057 3058 3058 3058 3058 3058 3057 3057 3057 3056 3056 3055 3055 3054 3052 3051 3051 3050 3049 3048 3047 3046 3044 3043 3041 3040 3038 3037 3035 3034 3032 3031 3029 3028 3026 3024 3023 3021 3020 3018 3016 3015 3013
3006 3007 3008 3009 3010 3010 3010 3011 3011 3012 3012 3013 3013 3014 3015 3015 3016 3017 3018 3019 3020 3022 3024 3027 3030 3032 3034 3036 3038 3040 3041 3042 3043 3045 3046 3047 3048 3049 3050 3051 3052 3053 3054 3054 3055 3054 3054 3054 3053 3053 3053 3053 3052 3052 3051 3050 3049 3048 3047 3047 3046 3045 3043 3042 3041 3040 3038 3036 3035 3033 3032 3030 3029 3027 3026 3024 3022 3021 3019 3018 3016 3014 3013 3011 3009
3004 3005 3005 3006 3006 3007 3007 3008 3008 3009 3009 3010 3010 3011 3011 3012 3012 3013 3014 3015 3017 3019 3022 3025 3028 3030 3032 3034 3035 3036 3038 3039 3040 3041 3043 3044 3045 3046 3047 3048 3049 3049 3050 3051 3051 3051 3050 3050 3050 3050 3049 3049 3049 3048 3047 3046 3045 3045 3044 3043 3042 3041 3040 3038 3037 3036 3034 3033 3031 3030 3028 3027 3025 3024 3022 3020 3018 3017 3015 3014 3012 3011 3009 3007 3005